[[{"header":{"parameterUnit":"m.s-1","parameterCategory":1,"la1":30.2991,"la2":30.254,"lo1":-89.0895,"lo2":-89.0444,"dy":0.0017,"dx":0.0017,"nx":28,"ny":28,"refTime":"2023-08-19T03:00:00:Z","depth":0,"parameterNumber":2,"parameterNumberName":"U-component_of_WINDS"},"data":[0,0,0,0,0,0,0,0,0,0,0,0,0,0,0,0,0,0,0,0,0,0,0,0,0,0,0,0,0,0,0,0,0,0,0,0,0,0,0,0,0,0,0,0,0,0,0,0,0,0,0,0,0,0,0,0,0,0,2.0026,2.0027,0,2.0102,2.0103,2.0103,2.0033,2.003,2.0027,2.0024,2.0107,2.0111,2.0116,0,0,0,0,0,0,0,0,0,0,0,0,0,1.9826,1.983,2.0026,2.0027,2.0028,2.0102,2.0103,2.0104,2.0033,2.003,2.0026,2.0023,2.0105,2.0111,2.0117,0,0,0,0,0,0,0,0,0,0,0,0,0,1.9909,1.9831,2.0026,2.0002,2.0,2.0101,2.0103,2.0104,2.0034,2.003,2.0025,2.0021,2.0103,2.011,2.0117,2.0248,0,0,2.014,2.0143,0,0,0,0,0,0,0,0,1.9904,1.9916,2.0004,2.0004,2.0002,2.0053,2.0062,2.0153,2.0035,2.0021,2.0024,2.0019,2.0093,2.0101,2.0124,2.0252,2.0256,2.014,2.0145,2.0148,2.015,0,0,0,0,0,0,0,1.9898,1.9912,2.0056,2.0006,2.0004,1.9989,1.9996,2.0079,2.008,2.0022,2.0017,2.0027,2.0091,2.0117,2.0126,2.0257,2.014,2.0147,2.0151,2.0154,2.0497,2.0501,0,0,0,0,0,0,1.9895,1.9908,2.0054,2.0059,1.9941,1.9996,2.0003,2.0041,2.0079,2.0081,2.003,2.0023,2.0107,2.0117,2.0128,2.0285,2.0148,2.0155,2.0159,2.0492,2.0498,2.0503,0,0,0,0,0,0,1.9891,1.9908,2.0051,1.9982,1.9999,2.0004,2.0047,2.0045,2.0071,2.0085,2.0086,2.0057,2.0104,2.0118,2.0219,2.0287,2.0158,2.0165,2.0487,2.0494,2.0501,2.0599,0,0,0,0,0,0,1.9885,1.9907,1.9956,1.9984,2.0003,2.0139,2.0051,2.005,2.0083,2.0075,2.011,2.0112,2.0102,2.0208,2.0226,2.0295,2.017,2.0481,2.049,2.0498,2.059,2.0609,2.0625,0,0,0,0,0,1.9878,1.9982,1.9959,1.9977,2.0063,2.0143,2.0154,2.0139,2.0089,2.0139,2.0148,2.0111,2.0276,2.0219,2.0239,2.031,2.0476,2.0487,2.0498,2.0582,2.0605,2.0624,0,0,0,0,0,0,1.9964,1.9985,1.996,2.0075,2.0107,2.0131,2.0193,2.0164,2.0213,2.0203,2.0184,2.0192,2.0299,2.0314,2.0251,2.0439,2.0368,2.0383,2.0426,2.0448,2.0465,2.046,2.0176,0,0,0,0,0,1.9995,2.0057,2.0072,2.0172,2.019,2.0189,2.0223,2.0208,2.0242,2.0256,2.0273,2.0308,2.0368,2.0409,2.0464,2.0591,2.0599,2.065,2.0667,2.0682,2.0696,2.0765,2.0789,2.0538,2.0538,2.0538,0,0,2.0063,2.0082,2.0122,2.019,2.0214,2.0279,2.0201,2.0274,2.0323,2.0268,2.0364,2.0377,2.0416,2.053,2.0581,2.0546,2.0766,2.0695,2.0706,2.0713,2.0778,2.0802,2.0823,2.0545,2.0544,2.0543,0,0,2.0219,2.0239,2.0325,2.035,2.0386,2.0384,2.0405,2.0433,2.0439,2.0535,2.0495,2.0554,2.0657,2.0687,2.0715,2.0882,2.0851,2.0901,2.0993,2.1061,2.1081,2.1099,2.116,2.1182,2.0914,2.0915,2.0915,0,2.0299,2.0394,2.0373,2.0449,2.048,2.0431,2.052,2.0545,2.0599,2.0623,2.0582,2.0711,2.0733,2.0855,2.0895,2.092,2.0944,2.0898,2.1079,2.1097,2.1113,2.1171,2.1194,2.0921,2.092,2.0919,2.0919,0,2.0491,2.0558,2.0624,2.0675,2.0714,2.0795,2.0788,2.083,2.0812,2.0816,2.0914,2.0939,2.1,2.1027,2.1011,2.1147,2.1124,2.1082,2.101,2.1143,2.1198,2.122,2.0929,2.0927,2.0925,2.0924,0,0,2.0706,2.0743,2.0767,2.079,2.0826,2.0879,2.0958,2.1015,2.1053,2.1091,2.1159,2.1247,2.1208,2.1241,2.1227,2.1287,2.142,2.1237,2.1238,2.1272,2.1573,2.1606,2.1632,2.1398,2.1402,2.1405,2.157,0,2.0864,2.1001,2.0984,2.1116,2.1179,2.1133,2.1202,2.1233,2.1238,2.1293,2.1299,2.1363,2.1305,2.1325,2.1381,2.1391,2.148,2.1379,2.1463,2.1466,2.1457,2.1661,2.1696,2.1851,2.1592,2.1595,2.1598,0,2.1069,2.1113,2.125,2.1277,2.1302,2.1365,2.1417,2.1469,2.1503,2.1503,2.1539,2.1515,2.1597,2.1522,2.1635,2.1567,2.16,2.161,2.1616,2.1625,2.1542,2.1678,2.19,2.1924,2.1631,2.1628,2.1626,0,2.1214,2.1307,2.1402,2.1422,2.1455,2.1501,2.1517,2.1546,2.1582,2.1628,2.1651,2.1706,2.1737,2.1781,2.1773,2.1719,2.189,2.1814,2.1894,2.1895,2.1934,2.1932,2.2167,2.1952,2.1951,2.1951,2.195,0,2.1394,2.1481,2.1467,2.1526,2.1622,2.1602,2.1698,2.1709,2.1735,2.1797,2.176,2.1818,2.1803,2.1862,2.1856,2.1952,2.1966,2.1969,2.1967,2.1974,2.1974,2.1998,2.1988,2.1957,2.1956,2.1955,2.1954,0,2.1574,2.1568,2.1668,2.169,2.1698,2.1768,2.1788,2.1844,2.1845,2.1923,2.194,2.1943,2.201,2.2006,2.2082,2.2078,2.2197,2.2181,2.2186,2.2183,2.2264,2.2258,2.2525,2.256,2.2319,2.2321,2.2323,0,2.1691,2.1756,2.1785,2.1822,2.1841,2.1902,2.1937,2.192,2.196,2.2003,2.2055,2.2117,2.2167,2.2277,2.2287,2.2345,2.2332,2.2421,2.2341,2.2346,2.2336,2.2333,2.2341,2.2438,2.2441,2.2443,2.2445,0,2.19,2.1893,2.1945,2.1997,2.2041,2.2081,2.2118,2.2151,2.2137,2.2184,2.225,2.2289,2.2365,2.243,2.2485,2.2503,2.2474,2.2469,2.2492,2.2501,2.2502,2.2505,2.2231,2.2464,2.2462,2.2461,2.246,2.2459,2.2053,2.211,2.2139,2.2198,2.2223,2.2258,2.2312,2.2319,2.2374,2.2434,2.2421,2.2497,2.253,2.2601,2.2624,2.2685,2.2653,2.2684,2.2693,2.2702,2.2712,2.2489,2.2694,2.2694,2.2693,2.2693,2.2692,0,2.2263,2.2278,2.2333,2.2385,2.2432,2.2396,2.2435,2.2478,2.2544,2.2577,2.2626,2.2703,2.2765,2.2779,2.2839,2.2885,2.2873,2.2901,2.2899,2.2905,2.2736,2.2712,2.291,2.291,2.291,2.291,2.291,2.291,2.2377,2.2471,2.2468,2.2575,2.259,2.2663,2.2688,2.2721,2.2746,2.2834,2.2884,2.2892,2.2918,2.2979,2.3035,2.3037,2.3062,2.3097,2.3095,2.2938,2.2916,2.2895,2.2873,2.3102,2.3102,2.3259,2.326,2.3262]},{"header":{"parameterUnit":"m.s-1","parameterCategory":1,"la1":30.2991,"la2":30.254,"lo1":-89.0895,"lo2":-89.0444,"dy":0.0017,"dx":0.0017,"nx":28,"ny":28,"refTime":"2023-08-19T03:00:00:Z","depth":0,"parameterNumber":3,"parameterNumberName":"V-component_of_WINDS"},"data":[0,0,0,0,0,0,0,0,0,0,0,0,0,0,0,0,0,0,0,0,0,0,0,0,0,0,0,0,0,0,0,0,0,0,0,0,0,0,0,0,0,0,0,0,0,0,0,0,0,0,0,0,0,0,0,0,0,0,2.7581,2.7582,0,2.7749,2.7751,2.7753,2.7763,2.7761,2.7759,2.7757,2.7928,2.7934,2.794,0,0,0,0,0,0,0,0,0,0,0,0,0,2.7267,2.7273,2.758,2.7583,2.7585,2.7748,2.7751,2.7753,2.7763,2.7761,2.7759,2.7757,2.7925,2.7933,2.794,0,0,0,0,0,0,0,0,0,0,0,0,0,2.7416,2.7275,2.758,2.761,2.7614,2.7748,2.7751,2.7754,2.7764,2.7761,2.7758,2.7755,2.7923,2.7932,2.7941,2.8057,0,0,2.797,2.7974,0,0,0,0,0,0,0,0,2.7408,2.7428,2.7603,2.7608,2.7613,2.7732,2.7703,2.7855,2.7765,2.7707,2.7757,2.7754,2.7865,2.7879,2.7916,2.8065,2.8072,2.7971,2.7977,2.7981,2.7984,0,0,0,0,0,0,0,2.7397,2.7421,2.7647,2.7606,2.7612,2.7614,2.7632,2.7732,2.78,2.7712,2.7713,2.7733,2.7867,2.7907,2.792,2.8075,2.7971,2.7979,2.7985,2.7989,2.8326,2.833,0,0,0,0,0,0,2.7382,2.7412,2.7642,2.7652,2.7501,2.7622,2.7642,2.7697,2.7799,2.7811,2.7735,2.7733,2.7893,2.7909,2.7926,2.8069,2.7981,2.799,2.7995,2.8323,2.8327,2.8331,0,0,0,0,0,0,2.7375,2.7402,2.7635,2.7532,2.7562,2.7631,2.7692,2.7701,2.7742,2.7816,2.7828,2.7764,2.7891,2.7913,2.8025,2.8075,2.7994,2.8003,2.8319,2.8324,2.8329,2.8353,0,0,0,0,0,0,2.7366,2.74,2.7444,2.7533,2.7568,2.7731,2.7695,2.7707,2.7759,2.7757,2.7847,2.7859,2.789,2.801,2.8034,2.8086,2.801,2.8315,2.8322,2.8327,2.8348,2.8358,2.8367,0,0,0,0,0,2.7355,2.7444,2.7446,2.7474,2.7625,2.7733,2.7753,2.7788,2.7763,2.7808,2.7856,2.7856,2.8065,2.8022,2.8048,2.8104,2.8312,2.832,2.8327,2.8344,2.8356,2.8367,0,0,0,0,0,0,2.7358,2.7456,2.746,2.7581,2.7649,2.7735,2.7793,2.78,2.7876,2.7872,2.7912,2.7932,2.8042,2.8084,2.8034,2.8221,2.8186,2.8199,2.819,2.8202,2.8211,2.8199,2.8018,0,0,0,0,0,2.7373,2.7453,2.7534,2.7633,2.7667,2.7724,2.7773,2.7794,2.7866,2.7895,2.7951,2.802,2.8101,2.8154,2.8233,2.8355,2.8374,2.8406,2.8415,2.8423,2.8433,2.8501,2.8516,2.8355,2.8355,2.8355,0,0,2.7404,2.7468,2.7516,2.7635,2.7691,2.7773,2.7748,2.7836,2.7897,2.7908,2.8017,2.806,2.814,2.8257,2.8311,2.8296,2.8483,2.8432,2.8438,2.8445,2.851,2.8526,2.8539,2.836,2.8359,2.8359,0,0,2.7503,2.7559,2.7648,2.7704,2.7789,2.7826,2.7848,2.7934,2.7963,2.8073,2.8083,2.8156,2.8296,2.8352,2.8399,2.8521,2.8524,2.8546,2.8594,2.866,2.8673,2.8684,2.8728,2.8743,2.8556,2.8556,2.8556,0,2.7531,2.7656,2.7693,2.7781,2.7833,2.7848,2.7938,2.799,2.8096,2.8131,2.8112,2.8288,2.8343,2.8474,2.8503,2.8541,2.8566,2.8535,2.8668,2.868,2.8691,2.8733,2.8749,2.8558,2.8558,2.8558,2.8558,0,2.7686,2.7772,2.7834,2.7936,2.7996,2.8084,2.8134,2.819,2.8206,2.8246,2.8358,2.8425,2.8517,2.855,2.8567,2.8684,2.8671,2.866,2.8625,2.8708,2.8748,2.8764,2.8561,2.856,2.856,2.8559,0,0,2.7791,2.7914,2.7936,2.7983,2.8077,2.8145,2.8234,2.8326,2.8373,2.8445,2.8521,2.8639,2.8629,2.8683,2.8706,2.8764,2.8856,2.8745,2.8748,2.8763,2.8989,2.8997,2.9015,2.8859,2.8862,2.8864,2.8982,0,2.79,2.806,2.8097,2.8234,2.8314,2.833,2.8407,2.8474,2.8513,2.8587,2.863,2.8713,2.8694,2.8727,2.8784,2.8832,2.8902,2.8824,2.8929,2.8932,2.8908,2.9036,2.9044,2.9152,2.8998,2.9001,2.9003,0,2.8049,2.8126,2.8272,2.8357,2.8392,2.8461,2.8548,2.8619,2.8694,2.8719,2.8779,2.8797,2.889,2.8851,2.898,2.8926,2.8971,2.9001,2.9006,2.9017,2.8972,2.9049,2.9187,2.9203,2.9028,2.9026,2.9024,0,2.8111,2.8251,2.8357,2.8396,2.8498,2.8546,2.8591,2.8664,2.8717,2.8793,2.8828,2.8914,2.8961,2.9026,2.9067,2.9034,2.9192,2.9156,2.9215,2.9214,2.9247,2.9244,2.9394,2.9277,2.9276,2.9276,2.9276,0,2.8229,2.8318,2.8386,2.845,2.855,2.8591,2.8688,2.8733,2.8798,2.8871,2.8889,2.8958,2.9007,2.9082,2.9114,2.9216,2.9237,2.9259,2.9266,2.9257,2.9254,2.9287,2.928,2.928,2.9279,2.9279,2.9278,0,2.8315,2.8364,2.848,2.8567,2.8591,2.8661,2.8735,2.8798,2.8839,2.8932,2.8956,2.9019,2.9108,2.9155,2.9266,2.9288,2.9402,2.9405,2.9377,2.938,2.9436,2.943,2.9611,2.9637,2.9503,2.9504,2.9505,0,2.8387,2.8455,2.855,2.8601,2.8647,2.8729,2.8783,2.8827,2.8883,2.8974,2.9027,2.9117,2.9192,2.9334,2.939,2.9475,2.948,2.9538,2.9493,2.9482,2.9481,2.9476,2.9484,2.9546,2.9547,2.9548,2.9549,0,2.8509,2.8531,2.8609,2.8697,2.8762,2.8832,2.8902,2.8943,2.8997,2.9059,2.9152,2.921,2.9324,2.9414,2.9504,2.9549,2.9558,2.9563,2.9581,2.9572,2.9553,2.9564,2.9398,2.9558,2.9557,2.9556,2.9556,2.9555,2.859,2.8652,2.8729,2.8816,2.8873,2.8938,2.9002,2.9051,2.9129,2.9227,2.9247,2.9345,2.9419,2.9541,2.9589,2.9666,2.9654,2.968,2.9686,2.9692,2.9695,2.9541,2.9682,2.9682,2.9682,2.9682,2.9681,0,2.8713,2.8764,2.8844,2.8942,2.901,2.9014,2.9092,2.9148,2.9234,2.9303,2.9377,2.9483,2.9571,2.9634,2.9723,2.9772,2.9778,2.9794,2.979,2.9801,2.97,2.9676,2.9787,2.9787,2.9787,2.9787,2.9787,2.9787,2.8786,2.8891,2.8921,2.9055,2.9105,2.9201,2.9245,2.9306,2.9361,2.9479,2.9552,2.9593,2.966,2.9754,2.9834,2.985,2.9882,2.9897,2.9914,2.9819,2.9807,2.9797,2.9774,2.9904,2.9904,3.0008,3.0009,3.0009]}]]